Starlink 30176

operational
NORAD ID: 57477 Int'l Des: 2023-107 Owner: SPXS Country: US Constellation: starlink
LEOCIRCULAR

Über Starlink 30176

Beschreibung wird geladen...

Live-Position

3D-Globus wird geladen...

Nächste Überflüge

Höhenverlauf

Altitude vs Time

uPlot chart will show altitude changes over time

Zweizeiliger Elementsatz

1 57477U 23107W 25259.54747163 .00000869 00000-0 79353-4 0 9997
2 57477 43.0030 204.7113 0001022 271.4987 88.5738 15.02538624118929
Epoch: 16. Sept. 2025 • Age: 12 hours

Aktueller Status

Höhe 562.3 km
Geschwindigkeit 7.58 km/s
Subsatellitenpunkt -16.91°S, 26.43°E
Startdatum 28. Juli 2023
Alter 2.1 years
Typ internet

Technische Details

Klassifizierung Payload
Masse 730.00 kg
Trockenmasse 700.00 kg
Gesamtmasse 730.00 kg
Länge 0.30 m
Durchmesser 4.10 m
Spannweite 29.00 m
Form Box + pan
Hersteller SPXS
Bus-Typ Starlink V2M
Phasenstatus In Orbit
Besitzer/Staat SPXS/US

Große Konstellationen

Loading constellations...